Regional Weather Roundup
Issued by NWS

Home | Current Version | Previous Version | Graphics & Text | Print | Product List | Glossary On
Versions: 1 2 3 4 5 6 7 8 9 10 11 12 13 14 15 16 17 18 19 20 21 22 23 24 25 26 27 28 29 30 31 32 33 34 35 36 37 38 39 40 41 42 43 44 45 46 47 48 49 50
000
ASUS45 KTFX 011404
RWRMT
MONTANA HOURLY WEATHER ROUNDUP
NATIONAL WEATHER SERVICE GREAT FALLS MT
704 AM MST SUN FEB 1 2015

NOTE: "FAIR" INDICATES FEW OR NO CLOUDS BELOW 12000 FEET WITH NO
SIGNIFICANT WEATHER AND/OR OBSTRUCTIONS TO VISIBILITY.

* THESE STATIONS ARE NOT UNDER NWS QUALITY CONTROL. THEY DO NOT
   REPORT WEATHER SUCH AS PRECIPITATION OR FOG.

MTZ001>007-043-011500-
WEST OF THE DIVIDE
CITY           SKY/WX    TMP DP  RH WIND       PRES   REMARKS
KALISPELL      CLOUDY    21  14  74 NE8       30.21F WCI  11
MISSOULA       PTCLDY    25  18  75 SE10      30.22F WCI  15
BUTTE          PTCLDY    10   7  88 E3        30.16F
MULLAN PASS    CLOUDY    21  18  88 S9        30.06F WCI  11
* ANACONDA     PTCLDY    16  10  77 S7         N/A   WCI   6
* ESSEX        N/A        8   5  87 E1         N/A
* LINCOLN      N/A        7   2  80 E2         N/A
* LOOKOUT PASS N/A       23  22  96 E1G9       N/A
* POLSON       N/A       20  19  96 N/A        N/A
* RONAN APT    PTCLDY    23  21  92 N/A        N/A
* SEELEY LAKE  N/A       18  11  74 SW1        N/A
* THOMP F APT  PTCLDY    16  13  88 NE3        N/A
* YAAK HILL    N/A       28  23  81 N/A        N/A
$$

MTZ008-052>055-011500-
SOUTHWEST MONTANA
CITY           SKY/WX    TMP DP  RH WIND       PRES   REMARKS
BOZEMAN        CLEAR     14  10  84 CALM      30.25F
DILLON         PTCLDY    10   7  88 W3        30.19F
* W YELLOWSTON PTCLDY    14  11  88 N/A        N/A
* THREE FORKS  PTCLDY    14  14 100 N/A        N/A
* BOULDER HILL N/A       10   6  84 S12        N/A   WCI  -5
* MONIDA PASS  N/A        4   1  87 N/A        N/A
* RAYNOLDS PAS N/A        3 -11  51 S2         N/A
* WHITEHALL    N/A       11   6  80 SW1G7      N/A
* WISE RIVER   N/A        8   4  84 W2         N/A
$$

MTZ009>010-012-014-046-048-049-054-011500-
EAST SLOPES AND CENTRAL MONTANA
CITY           SKY/WX    TMP DP  RH WIND       PRES   REMARKS
CUT BANK       CLEAR     -2  -6  83 CALM      30.16F
GREAT FALLS    MOCLDY     0  -4  83 SE6       30.22F WCI -12
HELENA         PTCLDY    10   7  88 W3        30.27F
MALMSTROM AFB  MOCLDY    -6 -11  78 S3        30.25F
* DEARBORN     N/A        2  -2  83 S2         N/A
* EAST GLACIER N/A       11   7  84 W6         N/A   WCI   1
* MONARCH      N/A        4  -1  79 S4         N/A
* PENDROY      N/A        5   2  87 SW9        N/A   WCI  -9
* ROGERS PASS  N/A        9   6  87 W8G13      N/A   WCI  -3
* SWEET GRASS  N/A       -2  -6  83 NW7        N/A   WCI -15
$$

MTZ011-013-016-021-035-040-045-047-050-051-011500-
NORTH CENTRAL MONTANA
CITY           SKY/WX    TMP DP  RH WIND       PRES   REMARKS
HAVRE          PTCLDY    -9 -13  82 S3        30.36F
LEWISTOWN      PTCLDY    -4  -8  83 SE7       30.24F WCI -18
* N BAR RANCH  CLEAR      0  -8  68 NW3       30.25S
* CHESTER      N/A       -9 -15  74 NE1        N/A
* DENTON       N/A        1  -1  91 S7         N/A   WCI -12
* GEYSER       N/A       -4  -7  87 S4         N/A
* JUDITH GAP   N/A        0  -1  95 SE8        N/A   WCI -14
* LOMA         N/A       -5  -9  82 NE1        N/A
$$

MTZ017>020-022>027-061-062-011500-
NORTHEAST MONTANA
CITY           SKY/WX    TMP DP  RH WIND       PRES   REMARKS
GLASGOW        PTCLDY    -6 -11  78 SE8       30.43F WCI -21
GLENDIVE       CLEAR     -9  -9 100 NW5       30.45S WCI -21
JORDAN         PTCLDY   -11 -17  74 CALM      30.42F
SIDNEY         CLEAR    -11 -26  46 W6        30.53R WCI -25
WOLF POINT     CLEAR     -9 -15  74 CALM      30.50F
* BEAVER HILL  N/A      -11 -15  82 W1         N/A
* CIRCLE       N/A       -8 -12  82 N/A        N/A
* LINDSAY DVD  N/A      -13 -17  82 W4         N/A
* NAVAJO       N/A      -10 -14  82 W7         N/A   WCI -25
* SACO         N/A      -12 -17  78 S6         N/A   WCI -26
$$

MTZ028>042-056>058-011500-
SOUTHCENTRAL AND SOUTHEAST MONTANA
CITY           SKY/WX    TMP DP  RH WIND       PRES   REMARKS
BAKER          FAIR      -8 -13  78 W8        30.40R WCI -24
BILLINGS       PTCLDY     7   1  76 CALM      30.35R
LIVINGSTON     FAIR      10   7  88 CALM      30.23S
MILES CITY     PTCLDY    -2  -4  91 NW5       30.45R WCI -13
* LAUREL APT   PTCLDY     3  -4  72 N/A        N/A
* ROUNDUP APT  PTCLDY     7  -2  66 N/A        N/A
* ALZADA       N/A       -4  -8  83 W4         N/A
* HYSHAM       N/A        1  -2  87 W2         N/A
* LAME DEER    N/A       -2  -6  83 W4         N/A
* REED POINT   N/A        8   6  91 E4         N/A
$$

REGIONAL REPORTS...DAKOTAS
CITY           SKY/WX    TMP DP  RH WIND       PRES   REMARKS
WILLISTON      PTCLDY   -15 -18  86 CALM      30.50S
DICKINSON      PTCLDY    -9 -15  74 NW3       30.40R
CROSBY         CLEAR     -9 -13  82 SW5       30.48F WCI -21
WATFORD CITY   CLEAR    -13 -18  78 SW3       30.47F
BISMARCK       MOCLDY    -8 -15  71 N10       30.51R WCI -26
GRAND FORKS    MOCLDY   -11 -20  63 N12       30.58R WCI -31
FARGO          CLOUDY    -6 -15  64 N18       30.50R WCI -29
BUFFALO SD     PTCLDY    -2  -8  75 NW10      30.28R WCI -18
RAPID CITY     PTCLDY     0  -4  83 N21       30.31R WCI -22
$$

REGIONAL REPORTS...WYOMING/IDAHO/WASHINGTON
CITY           SKY/WX    TMP DP  RH WIND       PRES   REMARKS
GILLETTE       FOG        5   1  83 N10       30.27R WCI -10
SHERIDAN       CLOUDY    10   3  73 W10       30.32R WCI  -4
CODY           CLOUDY    10   9  96 NE3       30.22R
YELLOWSTONE LA PTCLDY     3   0  87 CALM      30.14R
SALMON         CLOUDY    23  18  81 CALM      30.26F
MULLAN PASS    CLOUDY    21  18  88 S9        30.06S WCI  11
SAND POINT     CLOUDY    30  30 100 NE5       30.22F WCI  25
SPOKANE        CLOUDY    28  28 100 NE9       30.15F WCI  19

$$



USA.gov is the U.S. government's official web portal to all federal, state and local government web resources and services.